When you browse on this site, cookies collect data to enhance your experience and personalize the content and advertising you see.
Visit our Privacy Policy to learn more. By continuing to use the site, you agree to this use of cookies and data.
  • In Czech Republic
  • List of Countries
  • For 7 days
  • Water Temperature
  • Satellite Maps
  • Weather Map
  • Weather Widgets
  • user-avatar
    Login

    Hourly Weather Kalgoorlie

    Today, 17 January, Thursday

    Time Temperature Precipitation Wind Pressure Humidity
    00:00 +30°C° 0 mm 6 mps 724 mmHg 44%
    01:00 +28°C° 0 mm 6 mps 724 mmHg 50%
    02:00 +27°C° 0 mm 6 mps 725 mmHg 54%
    03:00 +26°C° 0 mm 6 mps 725 mmHg 57%
    04:00 +24°C° 0 mm 6 mps 725 mmHg 59%
    05:00 +23°C° 0 mm 6 mps 725 mmHg 62%
    06:00 +25°C° 0 mm 5 mps 725 mmHg 59%
    07:00 +26°C° 0 mm 5 mps 726 mmHg 57%
    08:00 +25°C° 0 mm 5 mps 726 mmHg 57%
    09:00 +27°C° 0 mm 4 mps 726 mmHg 51%
    10:00 +29°C° 0 mm 3 mps 726 mmHg 45%
    11:00 +31°C° 0 mm 2 mps 725 mmHg 39%
    12:00 +34°C° 0 mm 2 mps 725 mmHg 35%
    13:00 +35°C° 0 mm 2 mps 724 mmHg 31%
    14:00 +35°C° 0 mm 1 mps 724 mmHg 26%
    15:00 +37°C° 0 mm 2 mps 724 mmHg 24%
    16:00 +37°C° 0 mm 3 mps 724 mmHg 22%
    17:00 +38°C° 0 mm 4 mps 724 mmHg 20%
    18:00 +37°C° 0 mm 4 mps 724 mmHg 21%
    19:00 +36°C° 0 mm 5 mps 724 mmHg 22%
    20:00 +36°C° 0 mm 6 mps 725 mmHg 23%
    21:00 +33°C° 0 mm 7 mps 726 mmHg 31%
    22:00 +29°C° 0 mm 9 mps 726 mmHg 40%
    23:00 +27°C° 0 mm 11 mps 727 mmHg 48%

    Tomorrow, 18 January, Friday

    Time Temperature Precipitation Wind Pressure Humidity
    00:00 +24°C° 0.1 mm 10 mps 728 mmHg 52%
    01:00 +23°C° 0.1 mm 9 mps 728 mmHg 56%
    02:00 +22°C° 0.1 mm 9 mps 729 mmHg 60%
    03:00 +21°C° 0 mm 8 mps 729 mmHg 61%
    04:00 +21°C° 0 mm 8 mps 729 mmHg 62%
    05:00 +20°C° 0 mm 7 mps 730 mmHg 63%
    06:00 +21°C° 0 mm 7 mps 730 mmHg 60%
    07:00 +22°C° 0 mm 7 mps 730 mmHg 57%
    08:00 +23°C° 0 mm 7 mps 731 mmHg 54%
    09:00 +26°C° 0 mm 6 mps 730 mmHg 48%
    10:00 +28°C° 0 mm 6 mps 730 mmHg 43%
    11:00 +30°C° 0 mm 6 mps 730 mmHg 38%
    12:00 +32°C° 0 mm 6 mps 730 mmHg 35%
    13:00 +33°C° 0 mm 5 mps 730 mmHg 31%
    14:00 +34°C° 0 mm 5 mps 729 mmHg 28%
    15:00 +35°C° 0 mm 5 mps 729 mmHg 26%
    16:00 +35°C° 0 mm 5 mps 729 mmHg 25%
    17:00 +35°C° 0 mm 5 mps 729 mmHg 23%
    18:00 +35°C° 0 mm 5 mps 730 mmHg 24%
    19:00 +34°C° 0 mm 5 mps 730 mmHg 25%
    20:00 +33°C° 0 mm 5 mps 731 mmHg 26%
    21:00 +32°C° 0 mm 6 mps 731 mmHg 31%
    22:00 +29°C° 0 mm 8 mps 732 mmHg 36%
    23:00 +28°C° 0 mm 10 mps 732 mmHg 42%

    Day after tomorrow, 19 January, Saturday

    Time Temperature Precipitation Wind Pressure Humidity
    00:00 +26°C° 0 mm 9 mps 732 mmHg 46%
    01:00 +24°C° 0 mm 8 mps 732 mmHg 51%
    02:00 +23°C° 0 mm 8 mps 731 mmHg 56%
    03:00 +22°C° 0 mm 7 mps 732 mmHg 58%
    04:00 +22°C° 0 mm 7 mps 732 mmHg 60%
    05:00 +21°C° 0 mm 7 mps 732 mmHg 62%
    06:00 +22°C° 0 mm 7 mps 732 mmHg 58%
    07:00 +23°C° 0 mm 7 mps 733 mmHg 54%
    08:00 +24°C° 0 mm 7 mps 733 mmHg 50%
    09:00 +28°C° 0 mm 6 mps 733 mmHg 45%
    10:00 +30°C° 0 mm 6 mps 733 mmHg 39%
    11:00 +33°C° 0 mm 6 mps 733 mmHg 33%
    12:00 +34°C° 0 mm 5 mps 732 mmHg 29%
    13:00 +35°C° 0 mm 4 mps 731 mmHg 25%
    14:00 +36°C° 0 mm 4 mps 731 mmHg 20%
    15:00 +37°C° 0 mm 4 mps 730 mmHg 19%
    16:00 +37°C° 0 mm 4 mps 730 mmHg 18%
    17:00 +37°C° 0 mm 4 mps 730 mmHg 17%
    18:00 +37°C° 0 mm 4 mps 730 mmHg 17%
    19:00 +36°C° 0 mm 4 mps 731 mmHg 17%
    20:00 +35°C° 0 mm 5 mps 731 mmHg 17%
    21:00 +34°C° 0 mm 5 mps 731 mmHg 17%
    22:00 +34°C° 0 mm 5 mps 731 mmHg 18%
    23:00 +33°C° 0 mm 6 mps 731 mmHg 18%

    20 January, Sunday

    Time Temperature Precipitation Wind Pressure Humidity
    00:00 +32°C° 0 mm 6 mps 731 mmHg 22%
    01:00 +30°C° 0 mm 6 mps 731 mmHg 26%
    02:00 +29°C° 0 mm 7 mps 731 mmHg 30%
    03:00 +29°C° 0 mm 6 mps 731 mmHg 32%
    04:00 +28°C° 0 mm 6 mps 731 mmHg 34%
    05:00 +27°C° 0 mm 5 mps 731 mmHg 36%
    06:00 +29°C° 0 mm 6 mps 731 mmHg 33%
    07:00 +30°C° 0 mm 6 mps 731 mmHg 30%
    08:00 +33°C° 0 mm 6 mps 732 mmHg 26%
    09:00 +35°C° 0 mm 5 mps 732 mmHg 24%
    10:00 +36°C° 0 mm 5 mps 731 mmHg 21%
    11:00 +38°C° 0 mm 4 mps 731 mmHg 18%
    12:00 +40°C° 0 mm 4 mps 731 mmHg 17%
    13:00 +41°C° 0 mm 4 mps 730 mmHg 15%
    14:00 +42°C° 0 mm 4 mps 729 mmHg 13%
    15:00 +42°C° 0 mm 4 mps 729 mmHg 12%
    16:00 +42°C° 0 mm 4 mps 729 mmHg 12%
    17:00 +42°C° 0 mm 3 mps 729 mmHg 11%
    18:00 +41°C° 0 mm 4 mps 729 mmHg 12%
    19:00 +40°C° 0 mm 4 mps 729 mmHg 12%
    20:00 +38°C° 0 mm 4 mps 729 mmHg 13%
    21:00 +37°C° 0 mm 5 mps 729 mmHg 14%
    22:00 +37°C° 0 mm 5 mps 729 mmHg 15%
    23:00 +36°C° 0 mm 6 mps 729 mmHg 15%

    21 January, Monday

    Time Temperature Precipitation Wind Pressure Humidity
    00:00 +35°C° 0 mm 6 mps 729 mmHg 16%
    01:00 +34°C° 0 mm 6 mps 728 mmHg 17%
    02:00 +34°C° 0 mm 6 mps 728 mmHg 18%
    03:00 +33°C° 0 mm 6 mps 728 mmHg 18%
    04:00 +32°C° 0 mm 6 mps 728 mmHg 19%
    05:00 +32°C° 0 mm 5 mps 727 mmHg 20%
    06:00 +33°C° 0 mm 6 mps 728 mmHg 18%
    07:00 +35°C° 0 mm 6 mps 728 mmHg 17%
    08:00 +36°C° 0 mm 7 mps 728 mmHg 16%
    09:00 +39°C° 0 mm 6 mps 728 mmHg 15%
    10:00 +41°C° 0 mm 6 mps 728 mmHg 13%
    11:00 +42°C° 0 mm 5 mps 727 mmHg 11%
    12:00 +43°C° 0 mm 4 mps 727 mmHg 10%
    13:00 +44°C° 0 mm 4 mps 726 mmHg 10%
    14:00 +45°C° 0 mm 4 mps 725 mmHg 9%
    15:00 +45°C° 0 mm 3 mps 725 mmHg 9%
    16:00 +45°C° 0 mm 3 mps 724 mmHg 8%
    17:00 +45°C° 0 mm 2 mps 724 mmHg 8%
    18:00 +43°C° 0 mm 2 mps 724 mmHg 9%
    19:00 +42°C° 0 mm 2 mps 724 mmHg 10%
    20:00 +40°C° 0 mm 1 mps 724 mmHg 11%
    21:00 +40°C° 0 mm 2 mps 724 mmHg 11%
    22:00 +40°C° 0 mm 3 mps 724 mmHg 12%
    23:00 +39°C° 0 mm 3 mps 724 mmHg 13%

    22 January, Tuesday

    Time Temperature Precipitation Wind Pressure Humidity
    00:00 +37°C° 0 mm 4 mps 724 mmHg 17%
    01:00 +36°C° 0 mm 4 mps 723 mmHg 22%
    02:00 +34°C° 0 mm 5 mps 723 mmHg 27%
    03:00 +30°C° 0 mm 6 mps 723 mmHg 37%
    04:00 +28°C° 0 mm 7 mps 723 mmHg 47%
    05:00 +24°C° 0 mm 8 mps 723 mmHg 57%
    06:00 +26°C° 0 mm 8 mps 724 mmHg 53%
    07:00 +27°C° 0 mm 7 mps 724 mmHg 49%
    08:00 +28°C° 0 mm 7 mps 724 mmHg 45%
    09:00 +30°C° 0 mm 7 mps 724 mmHg 40%
    10:00 +33°C° 0 mm 7 mps 724 mmHg 34%
    11:00 +35°C° 0 mm 7 mps 724 mmHg 29%
    12:00 +35°C° 0 mm 8 mps 724 mmHg 30%
    13:00 +35°C° 0 mm 9 mps 723 mmHg 30%
    14:00 +36°C° 0 mm 10 mps 723 mmHg 31%
    15:00 +33°C° 0 mm 11 mps 724 mmHg 34%
    16:00 +32°C° 0 mm 12 mps 724 mmHg 38%
    17:00 +29°C° 0 mm 12 mps 724 mmHg 42%
    18:00 +27°C° 0 mm 12 mps 725 mmHg 45%
    19:00 +24°C° 0 mm 12 mps 726 mmHg 49%
    20:00 +22°C° 0 mm 12 mps 727 mmHg 53%
    21:00 +21°C° 0 mm 11 mps 728 mmHg 57%
    22:00 +18°C° 0 mm 11 mps 728 mmHg 61%
    23:00 +17°C° 0 mm 11 mps 728 mmHg 65%
    Show more